map of YBB home
Great Circle Mapper logo
YBB - Airport
Location
City:  Kugaaruk, Kitikmeot, Nunavut, Canada
Near (Alt.):Pelly Bay
ICAO / IATA:CYBB / YBB

Details
Type:Airport (Airfield)
Latitude:6832'04"N (68.534444)
Longitude:8948'29"W (-89.808055)
Datum:WGS 1984
Elevation:56 ft (17 m)
Runways:1
Longest:5000 × 100 ft (1524 × 30.5 m)

Time
Time Zone:UTC-6 (DST-5)
Local Time:

Weather
METAR:CYBB 021800Z 24003KT 15SM VCFG FEW006 FEW090 05/03 A2984 RMK SF1AC1 TR SF TR AC VIS SW-W 3 SLP105
TAF:CYBB 021838Z 0219/0223 VRB03KT P6SM SKC
TEMPO 0219/0223 3SM BR
RMK NXT FCST WILL BE ISSUED AT 031345Z

Related Locations
Nearby:
Farthest:YWKS: 11859 mi / 19085 km
Wilkins Runway (Casey), Upper Peterson Glacier, AQ

Find:

   beyond  
but within

Other Information
Maps:
NOTAMs:
Links:
Sources:

  
flag of Canada
flag of Nunavut
  

Airport Diagram

Airport diagram for YBB

Airport diagram PDF

Sectional Chart

Flight Planning
at skyvector.com

Satellite Image

Google Maps Satellite View

 

Copyright © 2004-2014 Karl L. Swartz. All rights reserved.
The Great Circle Mapper name and logo are trademarks of the Great Circle Mapper.
All other trademarks mentioned herein belong to their respective owners.
Please see credits for attibutions and further copyright information.

  Follow gcmap on Facebook Follow gcmap on Twitter

hCard Microformat

Geo Microformat